SAS812 ENZV-EDDC

Flight info

Callsign SAS812
Flight time 1h 29m
Altitude 39000
Route BIVKI DCT RAXLU DCT PITEN Z998 OSKAN OSKAN4B
Aircraft A20N/M-SDE2E3FGHIJ1RWXY/LB1

Departure

Time 2026-04-09 08:09
Airport Stavanger Airport, Sola (ENZV)

Arrival

Time 2026-04-09 09:38
Airport Dresden Airport (EDDC)
Time Latitude Longitude Altitude Speed Heading
2026-04-09 07:18 58.88132 5.63014 28 ft 0 kts 315°
2026-04-09 07:55 58.88130 5.63018 28 ft 2 kts 315°
2026-04-09 07:55 58.88119 5.63039 28 ft 2 kts 315°
2026-04-09 07:55 58.88109 5.63059 28 ft 2 kts 315°
2026-04-09 07:56 58.88099 5.63080 29 ft 2 kts 315°
2026-04-09 07:56 58.88088 5.63099 29 ft 1 kts 315°
2026-04-09 07:56 58.88088 5.63101 29 ft 0 kts 315°
2026-04-09 08:03 58.88097 5.63094 29 ft 2 kts 358°
2026-04-09 08:03 58.88118 5.63116 30 ft 3 kts 40°
2026-04-09 08:03 58.88132 5.63148 31 ft 2 kts 52°
2026-04-09 08:04 58.88140 5.63167 31 ft 2 kts 51°
2026-04-09 08:04 58.88157 5.63203 32 ft 6 kts 46°
2026-04-09 08:04 58.88211 5.63265 32 ft 10 kts 19°
2026-04-09 08:04 58.88261 5.63318 33 ft 7 kts 51°
2026-04-09 08:05 58.88288 5.63406 34 ft 7 kts 45°
2026-04-09 08:05 58.88341 5.63429 35 ft 9 kts 359°
2026-04-09 08:05 58.88420 5.63424 35 ft 13 kts 358°
2026-04-09 08:05 58.88524 5.63420 35 ft 16 kts 358°
2026-04-09 08:06 58.88649 5.63417 34 ft 19 kts 359°
2026-04-09 08:06 58.88788 5.63414 31 ft 20 kts 359°
2026-04-09 08:06 58.88934 5.63410 30 ft 21 kts 359°
2026-04-09 08:06 58.89078 5.63409 29 ft 20 kts 359°
2026-04-09 08:07 58.89220 5.63403 27 ft 18 kts 358°
2026-04-09 08:07 58.89311 5.63411 26 ft 9 kts 26°
2026-04-09 08:07 58.89344 5.63505 21 ft 6 kts 82°
2026-04-09 08:07 58.89347 5.63605 19 ft 8 kts 89°
2026-04-09 08:08 58.89339 5.63726 18 ft 5 kts 141°
2026-04-09 08:08 58.89316 5.63731 19 ft 0 kts 181°
2026-04-09 08:08 58.89244 5.63733 20 ft 40 kts 178°
2026-04-09 08:08 58.88688 5.63754 30 ft 116 kts 179°
2026-04-09 08:09 58.87723 5.63733 385 ft 147 kts 176°
2026-04-09 08:09 58.86715 5.63712 1211 ft 150 kts 173°
2026-04-09 08:09 58.85643 5.63729 1909 ft 163 kts 171°
2026-04-09 08:09 58.84446 5.63817 2479 ft 187 kts 172°
2026-04-09 08:10 58.83080 5.63907 3217 ft 205 kts 174°
2026-04-09 08:10 58.81623 5.63977 3964 ft 222 kts 176°
2026-04-09 08:10 58.80058 5.64038 4925 ft 231 kts 178°
2026-04-09 08:10 58.78457 5.64095 5922 ft 237 kts 179°
2026-04-09 08:11 58.76817 5.64149 6927 ft 242 kts 180°
2026-04-09 08:11 58.75131 5.64192 7889 ft 248 kts 181°
2026-04-09 08:11 58.73393 5.64236 8804 ft 256 kts 181°
2026-04-09 08:11 58.71606 5.64288 9703 ft 262 kts 181°
2026-04-09 08:12 58.69789 5.64533 10572 ft 271 kts 171°
2026-04-09 08:12 58.67982 5.65921 11201 ft 292 kts 151°
2026-04-09 08:12 58.66415 5.68439 12010 ft 304 kts 141°
2026-04-09 08:12 58.64872 5.71212 12897 ft 307 kts 141°
2026-04-09 08:13 58.63316 5.74014 13806 ft 310 kts 141°
2026-04-09 08:13 58.61758 5.76807 14662 ft 314 kts 141°
2026-04-09 08:13 58.60151 5.79674 15482 ft 318 kts 141°
2026-04-09 08:13 58.58540 5.82541 16353 ft 322 kts 141°
2026-04-09 08:14 58.56895 5.85463 17145 ft 326 kts 141°
2026-04-09 08:14 58.55246 5.88386 17888 ft 330 kts 140°
2026-04-09 08:14 58.53561 5.91369 18653 ft 334 kts 140°
2026-04-09 08:14 58.51846 5.94403 19392 ft 337 kts 140°
2026-04-09 08:15 58.50113 5.97459 20091 ft 342 kts 140°
2026-04-09 08:15 58.48376 6.00519 20751 ft 346 kts 140°
2026-04-09 08:15 58.46602 6.03641 21409 ft 351 kts 139°
2026-04-09 08:15 58.44814 6.06784 22023 ft 355 kts 139°
2026-04-09 08:16 58.42986 6.09996 22655 ft 359 kts 139°
2026-04-09 08:16 58.41157 6.13199 23266 ft 363 kts 139°
2026-04-09 08:16 58.39284 6.16474 23862 ft 367 kts 138°
2026-04-09 08:16 58.37409 6.19749 24435 ft 372 kts 138°
2026-04-09 08:17 58.35457 6.23014 24974 ft 376 kts 141°
2026-04-09 08:17 58.33389 6.26051 25525 ft 380 kts 145°
2026-04-09 08:17 58.31184 6.28882 26057 ft 385 kts 148°
2026-04-09 08:17 58.28956 6.31639 26561 ft 390 kts 148°
2026-04-09 08:18 58.26684 6.34448 27061 ft 394 kts 148°
2026-04-09 08:18 58.24366 6.37309 27526 ft 399 kts 148°
2026-04-09 08:18 58.22023 6.40202 27990 ft 404 kts 148°
2026-04-09 08:18 58.19689 6.43076 28438 ft 409 kts 148°
2026-04-09 08:19 58.17290 6.46028 28886 ft 413 kts 148°
2026-04-09 08:19 58.14897 6.48968 29386 ft 416 kts 148°
2026-04-09 08:19 58.12478 6.51933 29983 ft 416 kts 147°
2026-04-09 08:19 58.10045 6.54915 30417 ft 419 kts 148°
2026-04-09 08:20 58.07610 6.57892 30852 ft 423 kts 147°
2026-04-09 08:20 58.05138 6.60907 31255 ft 427 kts 147°
2026-04-09 08:20 58.02616 6.63980 31699 ft 429 kts 147°
2026-04-09 08:20 58.00127 6.67007 32128 ft 432 kts 148°
2026-04-09 08:21 57.97617 6.70058 32509 ft 434 kts 148°
2026-04-09 08:21 57.95081 6.73136 32908 ft 436 kts 148°
2026-04-09 08:21 57.92509 6.76246 33299 ft 438 kts 148°
2026-04-09 08:21 57.89963 6.79320 33749 ft 437 kts 148°
2026-04-09 08:22 57.87437 6.82369 34229 ft 436 kts 148°
2026-04-09 08:22 57.84891 6.85435 34699 ft 434 kts 147°
2026-04-09 08:22 57.82360 6.88478 35081 ft 433 kts 147°
2026-04-09 08:22 57.79845 6.91499 35471 ft 431 kts 147°
2026-04-09 08:23 57.77338 6.94505 35842 ft 430 kts 148°
2026-04-09 08:23 57.74832 6.97505 36176 ft 428 kts 147°
2026-04-09 08:23 57.72348 7.00470 36493 ft 428 kts 147°
2026-04-09 08:23 57.69827 7.03474 36845 ft 427 kts 147°
2026-04-09 08:24 57.67342 7.06431 37237 ft 427 kts 147°
2026-04-09 08:24 57.64841 7.09407 37654 ft 425 kts 147°
2026-04-09 08:24 57.62371 7.12337 38050 ft 424 kts 147°
2026-04-09 08:24 57.59898 7.15268 38410 ft 423 kts 147°
2026-04-09 08:25 57.57429 7.18189 38746 ft 422 kts 147°
2026-04-09 08:25 57.54959 7.21103 39056 ft 422 kts 147°
2026-04-09 08:25 57.52486 7.24017 39265 ft 423 kts 147°
2026-04-09 08:25 57.50010 7.26931 39266 ft 424 kts 147°
2026-04-09 08:26 57.45002 7.32808 39271 ft 435 kts 147°
2026-04-09 08:26 57.39883 7.38795 39270 ft 438 kts 147°
2026-04-09 08:27 57.34727 7.44806 39273 ft 440 kts 147°
2026-04-09 08:27 57.29571 7.50802 39272 ft 439 kts 147°
2026-04-09 08:28 57.24420 7.56766 39274 ft 440 kts 147°
2026-04-09 08:28 57.19236 7.62756 39267 ft 440 kts 147°
2026-04-09 08:29 57.14046 7.68724 39267 ft 441 kts 147°
2026-04-09 08:29 57.08875 7.74653 39273 ft 441 kts 147°
2026-04-09 08:30 57.03663 7.80611 39277 ft 442 kts 147°
2026-04-09 08:30 56.98453 7.86543 39277 ft 443 kts 147°
2026-04-09 08:31 56.90649 7.95397 39280 ft 443 kts 147°
2026-04-09 08:32 56.85383 8.01346 39282 ft 444 kts 147°
2026-04-09 08:32 56.80168 8.07220 39281 ft 444 kts 147°
2026-04-09 08:33 56.74901 8.13129 39294 ft 445 kts 147°
2026-04-09 08:33 56.69664 8.18988 39289 ft 445 kts 147°
2026-04-09 08:34 56.64374 8.24883 39293 ft 445 kts 147°
2026-04-09 08:34 56.59095 8.30747 39284 ft 446 kts 147°
2026-04-09 08:35 56.53817 8.36592 39286 ft 447 kts 147°
2026-04-09 08:35 56.48528 8.42430 39294 ft 448 kts 147°
2026-04-09 08:36 56.43208 8.48282 39292 ft 448 kts 147°
2026-04-09 08:36 56.37909 8.54090 39296 ft 448 kts 147°
2026-04-09 08:37 56.32587 8.59906 39288 ft 449 kts 147°
2026-04-09 08:37 56.27237 8.65735 39269 ft 450 kts 148°
2026-04-09 08:38 56.21903 8.71526 39326 ft 452 kts 148°
2026-04-09 08:38 56.16512 8.77360 39280 ft 451 kts 148°
2026-04-09 08:39 56.11158 8.83132 39300 ft 452 kts 148°
2026-04-09 08:39 56.05794 8.88893 39288 ft 452 kts 147°
2026-04-09 08:40 56.00381 8.94696 39303 ft 453 kts 147°
2026-04-09 08:40 55.94980 9.00468 39299 ft 453 kts 148°
2026-04-09 08:41 55.89586 9.06207 39327 ft 453 kts 148°
2026-04-09 08:41 55.84192 9.11927 39348 ft 454 kts 148°
2026-04-09 08:42 55.78777 9.17652 39290 ft 454 kts 147°
2026-04-09 08:42 55.73355 9.23364 39347 ft 456 kts 147°
2026-04-09 08:43 55.67896 9.29103 39356 ft 456 kts 147°
2026-04-09 08:43 55.62482 9.34769 39358 ft 456 kts 147°
2026-04-09 08:44 55.57034 9.40457 39342 ft 455 kts 147°
2026-04-09 08:44 55.51572 9.46139 39322 ft 456 kts 147°
2026-04-09 08:45 55.46127 9.51783 39333 ft 457 kts 147°
2026-04-09 08:45 55.40644 9.57449 39341 ft 457 kts 147°
2026-04-09 08:46 55.35166 9.63094 39369 ft 458 kts 147°
2026-04-09 08:46 55.29689 9.68720 39338 ft 457 kts 148°
2026-04-09 08:47 55.24191 9.74347 39341 ft 458 kts 148°
2026-04-09 08:47 55.18705 9.79942 39354 ft 459 kts 148°
2026-04-09 08:48 55.13214 9.85527 39354 ft 460 kts 148°
2026-04-09 08:48 55.07690 9.91125 39354 ft 460 kts 148°
2026-04-09 08:49 55.02153 9.96723 39372 ft 460 kts 148°
2026-04-09 08:49 54.96632 10.02286 39380 ft 459 kts 148°
2026-04-09 08:50 54.91116 10.07821 39365 ft 460 kts 148°
2026-04-09 08:50 54.85583 10.13358 39364 ft 460 kts 148°
2026-04-09 08:51 54.80053 10.18881 39342 ft 460 kts 148°
2026-04-09 08:51 54.74516 10.24392 39335 ft 461 kts 148°
2026-04-09 08:52 54.68949 10.29826 39349 ft 462 kts 149°
2026-04-09 08:52 54.63318 10.35038 39329 ft 462 kts 150°
2026-04-09 08:53 54.57650 10.40263 39346 ft 462 kts 149°
2026-04-09 08:53 54.51983 10.45499 39327 ft 462 kts 149°
2026-04-09 08:54 54.46359 10.50685 39393 ft 462 kts 149°
2026-04-09 08:54 54.40694 10.55896 39354 ft 463 kts 149°
2026-04-09 08:55 54.35033 10.61085 39359 ft 463 kts 149°
2026-04-09 08:55 54.29356 10.66272 39323 ft 463 kts 150°
2026-04-09 08:56 54.23654 10.71468 39330 ft 465 kts 150°
2026-04-09 08:56 54.17950 10.76648 39350 ft 465 kts 150°
2026-04-09 08:57 54.12255 10.81801 39331 ft 465 kts 150°
2026-04-09 08:57 54.06553 10.86948 39358 ft 464 kts 150°
2026-04-09 08:58 54.00864 10.92066 39340 ft 464 kts 150°
2026-04-09 08:58 53.95122 10.97218 39379 ft 466 kts 150°
2026-04-09 08:59 53.89403 11.02331 39356 ft 466 kts 150°
2026-04-09 08:59 53.83695 11.07416 39366 ft 466 kts 150°
2026-04-09 09:00 53.77975 11.12497 39366 ft 466 kts 150°
2026-04-09 09:00 53.72230 11.17587 39361 ft 466 kts 150°
2026-04-09 09:01 53.66514 11.22634 39347 ft 467 kts 150°
2026-04-09 09:01 53.60757 11.27703 39343 ft 467 kts 150°
2026-04-09 09:02 53.55011 11.32743 39331 ft 467 kts 150°
2026-04-09 09:02 53.49274 11.37764 39331 ft 465 kts 150°
2026-04-09 09:03 53.43545 11.42762 39364 ft 465 kts 150°
2026-04-09 09:03 53.37834 11.47728 39343 ft 465 kts 150°
2026-04-09 09:04 53.32080 11.52719 39331 ft 466 kts 150°
2026-04-09 09:04 53.26345 11.57675 39340 ft 466 kts 150°
2026-04-09 09:05 53.20585 11.62640 39342 ft 466 kts 150°
2026-04-09 09:05 53.14844 11.67576 39337 ft 467 kts 151°
2026-04-09 09:06 53.09111 11.72487 39344 ft 467 kts 151°
2026-04-09 09:06 53.03410 11.77683 39341 ft 465 kts 145°
2026-04-09 09:07 52.98287 11.84170 39332 ft 462 kts 135°
2026-04-09 09:07 52.93941 11.91921 39307 ft 458 kts 124°
2026-04-09 09:08 52.90165 12.00293 39331 ft 456 kts 123°
2026-04-09 09:08 52.86357 12.08693 39317 ft 457 kts 123°
2026-04-09 09:09 52.82519 12.17029 39327 ft 457 kts 123°
2026-04-09 09:09 52.78670 12.25362 39322 ft 457 kts 123°
2026-04-09 09:10 52.74812 12.33642 39327 ft 457 kts 125°
2026-04-09 09:10 52.70443 12.41325 39323 ft 462 kts 134°
2026-04-09 09:11 52.65406 12.47917 39315 ft 465 kts 143°
2026-04-09 09:11 52.59909 12.53458 39328 ft 467 kts 147°
2026-04-09 09:11 52.57101 12.56193 39103 ft 466 kts 147°
2026-04-09 09:12 52.54317 12.58912 38292 ft 473 kts 146°
2026-04-09 09:12 52.51488 12.61685 37450 ft 478 kts 147°
2026-04-09 09:12 52.48636 12.64481 36778 ft 478 kts 146°
2026-04-09 09:12 52.45816 12.67240 36362 ft 476 kts 147°
2026-04-09 09:13 52.42986 12.70009 35885 ft 474 kts 147°
2026-04-09 09:13 52.40171 12.72763 35314 ft 474 kts 147°
2026-04-09 09:13 52.37352 12.75514 34683 ft 473 kts 147°
2026-04-09 09:13 52.34546 12.78252 33946 ft 473 kts 147°
2026-04-09 09:14 52.31742 12.80986 33150 ft 474 kts 147°
2026-04-09 09:14 52.28896 12.83753 32525 ft 470 kts 147°
2026-04-09 09:14 52.26119 12.86445 32034 ft 465 kts 147°
2026-04-09 09:14 52.23375 12.89103 31501 ft 460 kts 147°
2026-04-09 09:15 52.20646 12.91753 30931 ft 456 kts 147°
2026-04-09 09:15 52.17948 12.94373 30345 ft 453 kts 147°
2026-04-09 09:15 52.15251 12.96989 29758 ft 449 kts 147°
2026-04-09 09:15 52.12600 12.99554 29199 ft 445 kts 147°
2026-04-09 09:16 52.09929 13.02138 28629 ft 442 kts 147°
2026-04-09 09:16 52.07321 13.04658 28063 ft 439 kts 147°
2026-04-09 09:16 52.04724 13.07165 27493 ft 436 kts 147°
2026-04-09 09:16 52.02144 13.09652 26964 ft 431 kts 147°
2026-04-09 09:17 51.99551 13.12149 26432 ft 427 kts 147°
2026-04-09 09:17 51.97036 13.14566 25908 ft 424 kts 147°
2026-04-09 09:17 51.94518 13.16982 25268 ft 424 kts 147°
2026-04-09 09:17 51.91983 13.19412 24720 ft 421 kts 147°
2026-04-09 09:18 51.89482 13.21805 24228 ft 417 kts 147°
2026-04-09 09:18 51.87015 13.24162 23752 ft 413 kts 146°
2026-04-09 09:18 51.84560 13.26506 23290 ft 409 kts 146°
2026-04-09 09:18 51.82131 13.28821 22822 ft 406 kts 146°
2026-04-09 09:19 51.79720 13.31110 22394 ft 401 kts 147°
2026-04-09 09:19 51.77333 13.33370 21968 ft 397 kts 147°
2026-04-09 09:19 51.74969 13.35604 21537 ft 393 kts 146°
2026-04-09 09:19 51.72617 13.37825 21096 ft 390 kts 146°
2026-04-09 09:20 51.70298 13.40016 20648 ft 387 kts 146°
2026-04-09 09:20 51.67989 13.42197 20205 ft 384 kts 146°
2026-04-09 09:20 51.65699 13.44355 19763 ft 381 kts 146°
2026-04-09 09:20 51.63426 13.46494 19311 ft 378 kts 146°
2026-04-09 09:21 51.61165 13.48621 18870 ft 376 kts 146°
2026-04-09 09:21 51.58897 13.50751 18419 ft 373 kts 146°
2026-04-09 09:21 51.56675 13.52838 17988 ft 370 kts 146°
2026-04-09 09:21 51.54463 13.54912 17554 ft 368 kts 146°
2026-04-09 09:22 51.52272 13.56962 17119 ft 366 kts 146°
2026-04-09 09:22 51.50069 13.59022 16681 ft 363 kts 146°
2026-04-09 09:22 51.47901 13.61035 16261 ft 361 kts 148°
2026-04-09 09:22 51.45578 13.62514 15812 ft 362 kts 165°
2026-04-09 09:23 51.43083 13.62981 15432 ft 360 kts 178°
2026-04-09 09:23 51.40598 13.63011 15003 ft 358 kts 180°
2026-04-09 09:23 51.38119 13.62977 14584 ft 356 kts 180°
2026-04-09 09:23 51.35664 13.62953 14162 ft 355 kts 179°
2026-04-09 09:24 51.33175 13.62955 13740 ft 353 kts 179°
2026-04-09 09:24 51.30735 13.62974 13340 ft 351 kts 179°
2026-04-09 09:24 51.28323 13.63003 12935 ft 349 kts 179°
2026-04-09 09:24 51.25915 13.63036 12525 ft 347 kts 179°
2026-04-09 09:25 51.23521 13.63070 12118 ft 344 kts 179°
2026-04-09 09:25 51.21134 13.63088 11709 ft 342 kts 181°
2026-04-09 09:25 51.18828 13.62319 11278 ft 337 kts 206°
2026-04-09 09:25 51.16933 13.60247 10909 ft 328 kts 223°
2026-04-09 09:26 51.15246 13.57864 10529 ft 325 kts 224°
2026-04-09 09:26 51.13567 13.55463 10293 ft 316 kts 224°
2026-04-09 09:26 51.11955 13.53193 10291 ft 304 kts 224°
2026-04-09 09:26 51.10400 13.51033 10245 ft 289 kts 224°
2026-04-09 09:27 51.08910 13.48982 10002 ft 284 kts 224°
2026-04-09 09:27 51.07411 13.46926 9732 ft 280 kts 224°
2026-04-09 09:27 51.05951 13.44930 9469 ft 276 kts 224°
2026-04-09 09:27 51.04507 13.42962 9212 ft 272 kts 223°
2026-04-09 09:28 51.03087 13.41029 8946 ft 267 kts 223°
2026-04-09 09:28 51.01694 13.39135 8690 ft 263 kts 223°
2026-04-09 09:28 51.00317 13.37264 8322 ft 258 kts 223°
2026-04-09 09:28 50.98958 13.35443 7897 ft 251 kts 218°
2026-04-09 09:29 50.97420 13.34306 7507 ft 244 kts 188°
2026-04-09 09:29 50.95752 13.34415 7103 ft 236 kts 160°
2026-04-09 09:29 50.94349 13.35600 6670 ft 226 kts 134°
2026-04-09 09:29 50.93308 13.37416 6242 ft 219 kts 125°
2026-04-09 09:30 50.92359 13.39282 5795 ft 218 kts 125°
2026-04-09 09:30 50.91463 13.41183 5525 ft 212 kts 113°
2026-04-09 09:30 50.91061 13.43365 5276 ft 203 kts 89°
2026-04-09 09:30 50.91329 13.45470 4939 ft 192 kts 60°
2026-04-09 09:31 50.92049 13.47132 4686 ft 179 kts 47°
2026-04-09 09:31 50.92919 13.48513 4355 ft 170 kts 41°
2026-04-09 09:31 50.93754 13.49688 4285 ft 156 kts 40°
2026-04-09 09:31 50.94568 13.50809 4252 ft 151 kts 40°
2026-04-09 09:32 50.95350 13.51883 4218 ft 146 kts 40°
2026-04-09 09:32 50.96115 13.52936 4198 ft 146 kts 40°
2026-04-09 09:32 50.96898 13.54014 4192 ft 150 kts 40°
2026-04-09 09:32 50.97675 13.55087 4130 ft 145 kts 40°
2026-04-09 09:33 50.98436 13.56137 4082 ft 145 kts 40°
2026-04-09 09:33 50.99198 13.57191 4011 ft 145 kts 40°
2026-04-09 09:33 50.99963 13.58247 3929 ft 145 kts 40°
2026-04-09 09:33 51.00727 13.59301 3719 ft 144 kts 40°
2026-04-09 09:34 51.01482 13.60344 3514 ft 144 kts 40°
2026-04-09 09:34 51.02236 13.61385 3328 ft 143 kts 40°
2026-04-09 09:34 51.03740 13.63461 2978 ft 143 kts 40°
2026-04-09 09:35 51.04489 13.64494 2792 ft 143 kts 41°
2026-04-09 09:35 51.05244 13.65534 2603 ft 143 kts 41°
2026-04-09 09:35 51.05999 13.66577 2412 ft 144 kts 39°
2026-04-09 09:35 51.06759 13.67624 2224 ft 144 kts 40°
2026-04-09 09:36 51.07521 13.68673 2027 ft 145 kts 39°
2026-04-09 09:36 51.08281 13.69717 1836 ft 144 kts 41°
2026-04-09 09:36 51.09015 13.70728 1662 ft 134 kts 43°
2026-04-09 09:36 51.09717 13.71699 1468 ft 132 kts 39°
2026-04-09 09:37 51.10417 13.72657 1300 ft 133 kts 44°
2026-04-09 09:37 51.11118 13.73616 1165 ft 133 kts 40°
2026-04-09 09:37 51.11815 13.74551 967 ft 131 kts 43°
2026-04-09 09:37 51.12504 13.75513 787 ft 131 kts 41°
2026-04-09 09:38 51.13155 13.76420 734 ft 107 kts 41°
2026-04-09 09:38 51.13590 13.77020 722 ft 58 kts 42°
2026-04-09 09:38 51.13844 13.77367 712 ft 29 kts 39°
2026-04-09 09:38 51.13900 13.77509 710 ft 13 kts 116°
2026-04-09 09:39 51.13840 13.77626 707 ft 10 kts 129°
2026-04-09 09:39 51.13793 13.77718 707 ft 7 kts 141°
2026-04-09 09:39 51.13743 13.77705 708 ft 7 kts 215°
2026-04-09 09:39 51.13703 13.77651 710 ft 7 kts 221°
2026-04-09 09:40 51.13656 13.77586 712 ft 12 kts 221°
2026-04-09 09:40 51.13578 13.77477 716 ft 16 kts 221°
2026-04-09 09:40 51.13482 13.77345 721 ft 19 kts 220°
2026-04-09 09:40 51.13379 13.77203 728 ft 18 kts 220°
2026-04-09 09:41 51.13289 13.77077 733 ft 16 kts 220°
2026-04-09 09:41 51.13208 13.76961 738 ft 14 kts 221°
2026-04-09 09:41 51.13129 13.76855 739 ft 15 kts 221°
2026-04-09 09:41 51.13048 13.76745 742 ft 15 kts 220°
2026-04-09 09:42 51.12966 13.76634 743 ft 15 kts 220°
2026-04-09 09:42 51.12878 13.76515 745 ft 15 kts 220°
2026-04-09 09:42 51.12824 13.76461 747 ft 8 kts 186°
2026-04-09 09:42 51.12761 13.76515 750 ft 12 kts 133°
2026-04-09 09:43 51.12699 13.76624 752 ft 12 kts 131°
2026-04-09 09:43 51.12655 13.76676 753 ft 7 kts 192°
2026-04-09 09:43 51.12613 13.76629 754 ft 5 kts 221°
2026-04-09 09:43 51.12595 13.76605 755 ft 2 kts 221°
2026-04-09 09:44 51.12592 13.76601 755 ft 0 kts 220°